Weather in Komsomolsk

Russia / Kemerovo Oblast     55°37′48″N   88°10′54″E
temp.,
°C
wind,
m/s
gust,
m/s
humid.,
%
clouds,
%
prec.,
mm/h
press.,
hPa
HPBL,
m
27 january, thu
thu2701:00−12sse119796 0.7 103029
04:00−17s119781 0.0 10319
07:00−18s229836 0.0 103417
10:00−18sse23975 0.0 103532
13:00−10ssw278299 0.0 1035729
16:00−11sw268228 0.0 1036351
19:00−19s229661 0.0 103810
22:00−19sse229878 0.0 103913
28 january, fri
fri2801:00−20s219891 0.0 103812
04:00−20sse219898 0.0 103813
07:00−20sse2197100 0.0 103817
10:00−18sse119498 0.0 103733
13:00−12sse138345 0.0 1036275
16:00−11w039175 0.1 1034315
19:00−19sse2110042 0.1 10369
22:00−18sse2197100 0.0 103520
29 january, sat
sat2901:00−19s119756 0.0 103513
04:00−21sse229830 0.0 103414
07:00−21sse2298100 0.0 103514
10:00−18sse1196100 0.0 103422
13:00−11se1183100 0.0 1033163
16:00−9e1189100 0.0 103380
19:00−16sse119690 0.0 10349
22:00−18s21995 0.0 103410
30 january, sun
sun3001:00−20s119955 0.0 103410
04:00−21sse119819 0.0 103410
07:00−20sse119773 0.0 103411
10:00−19se119650 0.0 103417
13:00−11ene118118 0.0 1032103
16:00−11ene12915 0.0 103143
19:00−19se21989 0.0 10329
22:00−20sse111005 0.0 10329
31 january, mon
mon3101:00−19sse229810 0.0 103211
04:00−19s22968 0.0 103212
07:00−18sse229387 0.0 103215
10:00−14s228899 0.0 103229
13:00−5s1281100 0.0 1030121
16:00−5ese1191100 0.0 103013
19:00−13sse2296100 0.0 103210
22:00−14ssw1196100 0.0 103314